Date String (YYYY-MM-DD hh:mm:ss) UTC,Instrument flags,Ambient pressure (hPa),Sample flow (lpm),Bypass flow (lpm),Sample temperature (°C),Ambient temperature (°C),ASC tube jacket temperature (°C),LED temperature (°C),Box temperature (°C),Sample RH (%),Span deviation,Mass concentration (μg/m³),Mass concentration (μg/m³),Mass concentration (μg/m³)
DateTimeUTC,F1_M11,P_M11,Q1_M11,Q2_M11,T1_M11,T2_M11,T3_M11,T4_M11,T5_M11,U1_M11,ZSPAN_M11,X0_M11,X2_M11,X1_M11
2022-04-26 07:00:00,,0831.4,5.01,0.00,25.1,24.0,00.0,34.1,26.8,14.2,0000.0,0009.56,0003.84,0003.37
2022-04-26 07:01:00,,0831.4,5.00,0.00,25.1,24.0,00.0,34.1,26.8,14.2,0000.0,0009.51,0003.82,0003.35
2022-04-26 07:02:00,,0831.4,4.99,0.00,25.0,24.0,00.0,34.1,26.8,14.2,0000.0,0009.03,0003.78,0003.34
2022-04-26 07:03:00,,0831.4,5.01,0.00,25.0,24.0,00.0,34.1,26.8,14.2,0000.0,0008.49,0003.75,0003.33
2022-04-26 07:04:00,,0831.4,4.99,0.00,25.0,23.9,00.0,34.1,26.8,14.2,0000.0,0007.99,0003.73,0003.32
2022-04-26 07:05:00,,0831.4,5.00,0.00,25.0,23.9,00.0,34.1,26.8,14.2,0000.0,0008.25,0003.73,0003.31
2022-04-26 07:06:00,,0831.4,5.00,0.00,25.0,23.9,00.0,34.1,26.8,14.2,0000.0,0008.42,0003.75,0003.30
2022-04-26 07:07:00,,0831.4,4.98,0.00,25.0,23.9,00.0,34.1,26.7,14.2,0000.0,0008.12,0003.77,0003.29
2022-04-26 07:08:00,,0831.4,5.01,0.00,25.0,23.9,00.0,34.1,26.7,14.2,0000.0,0008.38,0003.74,0003.28
2022-04-26 07:09:00,,0831.4,5.01,0.00,25.0,23.9,00.0,34.0,26.7,14.2,0000.0,0008.18,0003.73,0003.27
2022-04-26 07:10:00,,0831.4,5.00,0.00,24.9,23.9,00.0,34.0,26.6,14.1,0000.0,0008.11,0003.71,0003.26
2022-04-26 07:11:00,,0831.4,5.00,0.00,24.9,23.8,00.0,34.0,26.7,14.1,0000.0,0007.61,0003.69,0003.24
2022-04-26 07:12:00,,0831.4,5.00,0.00,24.9,23.8,00.0,34.0,26.7,14.1,0000.0,0007.63,0003.69,0003.23
2022-04-26 07:13:00,,0831.3,5.01,0.00,24.9,23.8,00.0,34.0,26.7,14.1,0000.0,0007.98,0003.69,0003.21
2022-04-26 07:14:00,,0831.2,5.00,0.00,24.9,23.8,00.0,34.0,26.6,14.1,0000.0,0008.07,0003.65,0003.20
2022-04-26 07:15:00,,0831.2,5.00,0.00,24.9,23.9,00.0,34.0,26.6,14.1,0000.0,0008.17,0003.64,0003.20
2022-04-26 07:16:00,,0831.2,5.01,0.00,24.9,23.9,00.0,34.0,26.6,14.0,0000.0,0008.38,0003.66,0003.19
2022-04-26 07:17:00,,0831.2,4.99,0.00,24.9,23.8,00.0,33.9,26.6,14.1,0000.0,0008.24,0003.65,0003.19
2022-04-26 07:18:00,,0831.2,4.98,0.00,24.9,23.9,00.0,33.9,26.6,14.1,0000.0,0008.06,0003.64,0003.20
2022-04-26 07:19:00,,0831.3,5.01,0.00,24.9,23.8,00.0,33.9,26.6,14.1,0000.0,0007.64,0003.66,0003.21
2022-04-26 07:20:00,,0831.2,4.99,0.00,24.8,23.8,00.0,33.9,26.6,14.1,0000.0,0007.60,0003.63,0003.21
2022-04-26 07:21:00,,0831.2,4.99,0.00,24.9,23.8,00.0,33.9,26.6,14.1,0000.0,0007.65,0003.66,0003.23
2022-04-26 07:22:00,,0831.2,4.99,0.00,24.8,23.8,00.0,33.9,26.6,14.1,0000.0,0007.68,0003.68,0003.24
2022-04-26 07:23:00,,0831.2,4.99,0.00,24.8,23.8,00.0,33.9,26.6,14.1,0000.0,0007.65,0003.69,0003.26
2022-04-26 07:24:00,,0831.1,5.01,0.00,24.8,23.8,00.0,33.9,26.6,14.1,0000.0,0007.46,0003.74,0003.28
2022-04-26 07:25:00,,0831.2,5.00,0.00,24.8,23.8,00.0,33.9,26.6,14.1,0000.0,0007.41,0003.79,0003.30
2022-04-26 07:26:00,,0831.1,5.00,0.00,24.8,23.8,00.0,33.9,26.6,14.1,0000.0,0007.54,0003.82,0003.32
2022-04-26 07:27:00,,0831.1,5.00,0.00,24.8,23.8,00.0,33.9,26.6,14.1,0000.0,0006.98,0003.80,0003.33
2022-04-26 07:28:00,,0831.1,5.00,0.00,24.8,23.8,00.0,33.8,26.6,14.1,0000.0,0006.65,0003.81,0003.34
2022-04-26 07:29:00,,0831.1,4.99,0.00,24.8,23.8,00.0,33.8,26.5,14.1,0000.0,0006.87,0003.82,0003.35
2022-04-26 07:30:00,,0831.1,5.00,0.00,24.8,23.9,00.0,33.8,26.6,14.1,0000.0,0007.34,0003.80,0003.34
2022-04-26 07:31:00,,0831.2,5.00,0.00,24.8,23.9,00.0,33.8,26.6,14.1,0000.0,0007.46,0003.84,0003.35
2022-04-26 07:32:00,,0831.2,5.02,0.00,24.8,23.9,00.0,33.8,26.6,14.0,0000.0,0008.05,0003.89,0003.37
2022-04-26 07:33:00,,0831.1,5.01,0.00,24.8,23.9,00.0,33.8,26.6,14.0,0000.0,0008.42,0003.90,0003.38
2022-04-26 07:34:00,,0831.1,5.00,0.00,24.8,23.9,00.0,33.8,26.5,14.0,0000.0,0008.51,0003.91,0003.40
2022-04-26 07:35:00,,0831.2,5.01,0.00,24.8,23.8,00.0,33.8,26.5,14.0,0000.0,0009.00,0003.91,0003.42
2022-04-26 07:36:00,,0831.1,4.99,0.00,24.7,23.8,00.0,33.8,26.5,14.0,0000.0,0009.06,0003.93,0003.42
2022-04-26 07:37:00,,0831.2,4.99,0.00,24.7,23.8,00.0,33.8,26.5,13.9,0000.0,0009.56,0003.92,0003.42
2022-04-26 07:38:00,,0831.2,4.99,0.00,24.7,23.8,00.0,33.8,26.5,13.8,0000.0,0009.68,0003.95,0003.44
2022-04-26 07:39:00,,0831.2,5.01,0.00,24.7,23.8,00.0,33.7,26.5,13.8,0000.0,0009.70,0003.97,0003.47
2022-04-26 07:40:00,,0831.2,5.00,0.00,24.7,23.8,00.0,33.7,26.5,13.8,0000.0,0009.68,0003.96,0003.48
2022-04-26 07:41:00,,0831.1,5.00,0.00,24.7,23.8,00.0,33.7,26.5,13.9,0000.0,0009.64,0004.00,0003.50
2022-04-26 07:42:00,,0831.1,4.99,0.00,24.7,23.8,00.0,33.7,26.5,13.9,0000.0,0010.18,0004.02,0003.51
2022-04-26 07:43:00,,0831.2,5.00,0.00,24.7,23.8,00.0,33.7,26.6,13.9,0000.0,0009.95,0004.00,0003.50
2022-04-26 07:44:00,,0831.2,5.00,0.00,24.7,23.8,00.0,33.7,26.5,13.9,0000.0,0009.58,0004.02,0003.50
2022-04-26 07:45:00,,0831.2,5.00,0.00,24.7,23.9,00.0,33.7,26.6,13.9,0000.0,0009.55,0004.04,0003.50
2022-04-26 07:46:00,,0831.1,5.00,0.00,24.8,23.9,00.0,33.7,26.6,14.0,0000.0,0009.10,0004.02,0003.50
2022-04-26 07:47:00,,0831.1,4.99,0.00,24.8,23.9,00.0,33.7,26.6,14.0,0000.0,0008.86,0004.00,0003.50
2022-04-26 07:48:00,,0831.0,5.00,0.00,24.8,23.9,00.0,33.7,26.6,14.0,0000.0,0008.42,0004.00,0003.50
2022-04-26 07:49:00,,0831.0,4.99,0.00,24.8,23.9,00.0,33.7,26.6,13.9,0000.0,0008.13,0004.02,0003.50
2022-04-26 07:50:00,,0831.0,5.01,0.00,24.8,23.9,00.0,33.7,26.6,13.8,0000.0,0008.13,0004.01,0003.50
2022-04-26 07:51:00,,0831.0,5.00,0.00,24.8,23.9,00.0,33.7,26.6,13.7,0000.0,0008.08,0004.01,0003.49
2022-04-26 07:52:00,,0831.0,5.01,0.00,24.8,23.9,00.0,33.7,26.6,13.7,0000.0,0007.89,0004.01,0003.48
2022-04-26 07:53:00,,0831.0,5.00,0.00,24.8,23.9,00.0,33.7,26.6,13.7,0000.0,0007.30,0004.01,0003.49
2022-04-26 07:54:00,,0831.0,5.00,0.00,24.8,23.9,00.0,33.7,26.6,13.7,0000.0,0006.86,0004.00,0003.50
2022-04-26 07:55:00,,0831.0,5.00,0.00,24.8,23.9,00.0,33.7,26.6,13.7,0000.0,0006.92,0004.01,0003.50
2022-04-26 07:56:00,,0831.0,4.99,0.00,24.8,23.9,00.0,33.7,26.6,13.7,0000.0,0007.40,0003.99,0003.50
2022-04-26 07:57:00,,0831.0,5.00,0.00,24.8,23.9,00.0,33.7,26.6,13.7,0000.0,0007.98,0004.02,0003.50
2022-04-26 07:58:00,,0831.0,5.00,0.00,24.8,23.9,00.0,33.7,26.5,13.8,0000.0,0008.50,0004.05,0003.51
2022-04-26 07:59:00,,0831.0,4.99,0.00,24.8,23.8,00.0,33.7,26.5,13.8,0000.0,0008.81,0004.09,0003.51
